METEOR 2-7 DEB, 43301

Orbit data source: Space-Track

METEOR 2-7 DEB, 43301 is space debris in LEO originally from a launch on Thu, 14 May 1981 UTC launched from the Plesetsk Missile And Space Complex (PKMTR). Debris objects in space refer to the collection of defunct objects orbiting the Earth. Examples of debris include non-operational satellites, rocket bodies, and fragments generated from explosions, collisions, or faulty payload assembly.

Loading next visibility...
Identifier
43301, 1981-043Y
Orbit
LEO
Country
Flag of CISCIS
Related business
Manufacturer
Unknown
Mission
Spacecraft
Bus & Motor
Unknown
Mass
Unknown
Launch date (UTC)
1981-05-14 (45 years ago)
Launch vehicle
Unknown
Launch site
Plesetsk Missile And Space Complex (PKMTR)
Object type
Payload
Rocket body
Debris
Shape & HBR
Unknown shape, 0.1 m
Radar Cross Section
Small (<0.1 m²)

Expand to show TLE details & history
Last TLE update: 1 day ago

TLE from 1 day ago
0 METEOR 2-7 DEB
1 43301U 81043Y   25340.50269620  .00010975  00000-0  42760-2 0  9994
2 43301  81.2597 258.3416 0039627 238.7738 120.9559 14.29221497487303
Epoch: 2025-12-06T12:03Z
TLE epoch observation values (Epoch: 2025-12-06T12:03:52.951Z)
Latitude
0.00004°
Longitude
1.84147°
Altitude
811.966 km
Speed
7.44 km/s
True Right ascension
17h 13m 21s
True Declination
0° 00' 00"
Sunlit
Object was in daylight at epoch
Visualization orbit readout
Latitude
Unknown
Longitude
Unknown
Altitude
Unknown
Speed
Unknown
Apparent Right ascension
Unknown
Apparent Declination
Unknown
Sunlit
N/A
Visualization observer readout
Local Sidereal Time
21:12:29
Azimuth
Unknown
Elevation
Unknown
Doppler factor
Unknown
Orbital elements
Apogee altitude
819.893 km
Perigee altitude
763.071 km
Semi-major axis
7,169.619 km
Eccentricity
0.00396
Inclination
81.2597°
RAAN
258.3416°
Arg. of periapsis
238.7738°
True anomaly
121.34432°
Mean anomaly
120.9559°
Eccentric anomaly
121.15021°
Mean motion
3.57519 °/min
Orbital period
100.69 mins
BSTAR
0.004276
Loading maneuver chart data...
Computing Atmospheric mass density...

Documentation

Showing up to 5 results
|